[[{"header":{"parameterUnit":"m.s-1","parameterCategory":2,"la1":30.2991,"la2":30.254,"lo1":-89.0895,"lo2":-89.0444,"dy":0.0017,"dx":0.0017,"nx":28,"ny":28,"refTime":"2023-10-05T09:00:00:Z","depth":"0","parameterNumber":2,"parameterNumberName":"U-component_of_CURRENTS"},"data":[0,0,0,0,0,0,0,0,0,0,0,0,0,0,0,0,0,0,0,0,0,0,0,0,0,0,0,0,0,0,0,0,0,0,0,0,0,0,0,0,0,0,0,0,0,0,0,0,0,0,0,0,0,0,0,0,0,0,-0.3094,-0.3095,0,-0.3123,-0.3123,-0.3123,-0.3042,-0.304,-0.3038,-0.3036,-0.2941,-0.2941,-0.294,0,0,0,0,0,0,0,0,0,0,0,0,0,-0.2889,-0.2893,-0.3094,-0.3095,-0.3096,-0.3123,-0.3123,-0.3123,-0.3042,-0.304,-0.3037,-0.3035,-0.2942,-0.2941,-0.294,0,0,0,0,0,0,0,0,0,0,0,0,0,-0.2949,-0.2895,-0.3094,-0.3063,-0.306,-0.3123,-0.3123,-0.3122,-0.3043,-0.304,-0.3037,-0.3034,-0.2942,-0.2941,-0.294,-0.2995,0,0,-0.2937,-0.2937,0,0,0,0,0,0,0,0,-0.2946,-0.2956,-0.3067,-0.3065,-0.3063,-0.308,-0.3016,-0.3076,-0.3043,-0.3044,-0.3036,-0.3032,-0.2982,-0.2978,-0.2984,-0.2991,-0.2987,-0.2937,-0.2936,-0.2936,-0.2936,0,0,0,0,0,0,0,-0.2942,-0.2954,-0.31,-0.3068,-0.3066,-0.302,-0.3025,-0.3026,-0.3024,-0.3044,-0.3039,-0.3052,-0.2979,-0.2985,-0.2981,-0.2985,-0.2937,-0.2936,-0.2936,-0.2935,-0.3043,-0.3046,0,0,0,0,0,0,-0.2958,-0.2952,-0.31,-0.3102,-0.3001,-0.3027,-0.3032,-0.3073,-0.3026,-0.3019,-0.3054,-0.3048,-0.2989,-0.2982,-0.2977,-0.3007,-0.2936,-0.2935,-0.2935,-0.3039,-0.3043,-0.3047,0,0,0,0,0,0,-0.2954,-0.2972,-0.3099,-0.3028,-0.3042,-0.3034,-0.3081,-0.3076,-0.3068,-0.3036,-0.3024,-0.3049,-0.2986,-0.2979,-0.299,-0.3003,-0.2935,-0.2934,-0.3035,-0.304,-0.3045,-0.3087,0,0,0,0,0,0,-0.2948,-0.2971,-0.2999,-0.3031,-0.3047,-0.3148,-0.3084,-0.3079,-0.3083,-0.3075,-0.3029,-0.3018,-0.2983,-0.2992,-0.2989,-0.3001,-0.2933,-0.3031,-0.3037,-0.3043,-0.3082,-0.3093,-0.3103,0,0,0,0,0,-0.2941,-0.3006,-0.3001,-0.3018,-0.3089,-0.3151,-0.3155,-0.3132,-0.3086,-0.3107,-0.3075,-0.3019,-0.303,-0.2995,-0.299,-0.3001,-0.3028,-0.3036,-0.3043,-0.3077,-0.3091,-0.3103,0,0,0,0,0,0,-0.2905,-0.3005,-0.2999,-0.3082,-0.3115,-0.3139,-0.3156,-0.314,-0.3133,-0.311,-0.3059,-0.3049,-0.3066,-0.3051,-0.3012,-0.3062,-0.3022,-0.3029,-0.3049,-0.3062,-0.3073,-0.3027,-0.2932,0,0,0,0,0,-0.2922,-0.3003,-0.3061,-0.3116,-0.3142,-0.3145,-0.3161,-0.3153,-0.3158,-0.3149,-0.3123,-0.3104,-0.3104,-0.3093,-0.3098,-0.3122,-0.3049,-0.3135,-0.3146,-0.3154,-0.3122,-0.302,-0.3015,-0.3072,-0.3072,-0.3072,0,0,-0.291,-0.2982,-0.3016,-0.3115,-0.3131,-0.3172,-0.3146,-0.3184,-0.3196,-0.3143,-0.3148,-0.3142,-0.3125,-0.315,-0.3156,-0.3127,-0.3115,-0.3164,-0.3171,-0.3132,-0.3026,-0.3019,-0.3013,-0.3077,-0.3076,-0.3076,0,0,-0.2935,-0.3004,-0.307,-0.3117,-0.3177,-0.3194,-0.3207,-0.3243,-0.3237,-0.3267,-0.3226,-0.323,-0.3238,-0.3221,-0.3212,-0.3294,-0.3181,-0.3307,-0.3304,-0.3207,-0.3199,-0.319,-0.3131,-0.3117,-0.3303,-0.3303,-0.3303,0,-0.2889,-0.2991,-0.3088,-0.3154,-0.3161,-0.3203,-0.322,-0.3261,-0.3287,-0.3259,-0.3275,-0.3251,-0.3266,-0.3237,-0.3287,-0.3308,-0.3235,-0.3245,-0.3211,-0.3201,-0.3191,-0.3132,-0.3115,-0.3306,-0.3306,-0.3305,-0.3305,0,-0.2973,-0.3021,-0.3061,-0.3154,-0.3198,-0.3222,-0.3288,-0.3309,-0.3306,-0.3308,-0.3293,-0.3321,-0.3276,-0.3322,-0.3334,-0.3287,-0.3254,-0.3234,-0.3154,-0.3186,-0.3125,-0.3107,-0.331,-0.3309,-0.3308,-0.3308,0,0,-0.2867,-0.307,-0.3058,-0.3063,-0.3178,-0.3195,-0.3254,-0.3264,-0.3228,-0.329,-0.3219,-0.3296,-0.3272,-0.3265,-0.3277,-0.3237,-0.3172,-0.3213,-0.3207,-0.3113,-0.2954,-0.292,-0.2896,-0.3112,-0.3108,-0.3105,-0.2952,0,-0.2835,-0.2932,-0.305,-0.3056,-0.3074,-0.314,-0.317,-0.3198,-0.3217,-0.3189,-0.3211,-0.3185,-0.3262,-0.3232,-0.3207,-0.3175,-0.3117,-0.3215,-0.2973,-0.2966,-0.2894,-0.2871,-0.2777,-0.2628,-0.2933,-0.293,-0.2927,0,-0.2824,-0.2878,-0.2914,-0.2948,-0.2956,-0.2985,-0.2959,-0.3002,-0.3024,-0.3032,-0.3018,-0.3032,-0.3026,-0.3076,-0.2989,-0.3033,-0.299,-0.2972,-0.2964,-0.2886,-0.2895,-0.2643,-0.2582,-0.2575,-0.2898,-0.29,-0.2903,0,-0.2652,-0.2737,-0.2744,-0.2769,-0.2866,-0.2851,-0.2877,-0.2918,-0.2923,-0.292,-0.2903,-0.2878,-0.2865,-0.2805,-0.2846,-0.2873,-0.2727,-0.2746,-0.2665,-0.2664,-0.2513,-0.2503,-0.2368,-0.2621,-0.2621,-0.2622,-0.2622,0,-0.2553,-0.2525,-0.2659,-0.2657,-0.2607,-0.2714,-0.2665,-0.2704,-0.2737,-0.2726,-0.2796,-0.2773,-0.2789,-0.2748,-0.2753,-0.2663,-0.2638,-0.2632,-0.2598,-0.2538,-0.2533,-0.2464,-0.2502,-0.2616,-0.2617,-0.2618,-0.2619,0,-0.238,-0.2478,-0.2472,-0.2542,-0.2551,-0.2515,-0.2574,-0.2552,-0.2605,-0.2594,-0.2592,-0.2652,-0.2612,-0.2626,-0.2544,-0.2538,-0.2415,-0.2429,-0.2392,-0.2355,-0.227,-0.2317,-0.2117,-0.2057,-0.2275,-0.2272,-0.2271,0,-0.2313,-0.231,-0.2375,-0.2369,-0.2404,-0.2388,-0.2394,-0.2471,-0.248,-0.2529,-0.2512,-0.2492,-0.2478,-0.2376,-0.2341,-0.2265,-0.2303,-0.214,-0.2182,-0.2219,-0.2244,-0.2285,-0.2253,-0.202,-0.2016,-0.2013,-0.2011,0,-0.2154,-0.2199,-0.2216,-0.2218,-0.2221,-0.2215,-0.2236,-0.2227,-0.2323,-0.2326,-0.233,-0.2315,-0.2269,-0.2171,-0.2108,-0.2065,-0.209,-0.2074,-0.2079,-0.1994,-0.2052,-0.1994,-0.2219,-0.1984,-0.1986,-0.1988,-0.199,-0.1991,-0.2029,-0.2016,-0.2062,-0.2043,-0.2049,-0.2027,-0.1973,-0.2027,-0.2013,-0.201,-0.2107,-0.2069,-0.2065,-0.196,-0.1914,-0.1812,-0.1874,-0.1772,-0.1815,-0.1846,-0.1806,-0.2002,-0.1759,-0.176,-0.1761,-0.1762,-0.1763,0,-0.1867,-0.1888,-0.1877,-0.1862,-0.1808,-0.1861,-0.1852,-0.1794,-0.1743,-0.1805,-0.1794,-0.1813,-0.1727,-0.1738,-0.1663,-0.1589,-0.1558,-0.156,-0.1584,-0.1554,-0.1667,-0.1676,-0.1441,-0.1441,-0.1442,-0.1442,-0.1442,-0.1442,-0.1786,-0.1741,-0.1754,-0.162,-0.1604,-0.1488,-0.1451,-0.1409,-0.1415,-0.1382,-0.1421,-0.1494,-0.1548,-0.1681,-0.159,-0.1508,-0.1488,-0.1427,-0.1463,-0.1568,-0.1592,-0.1615,-0.163,-0.139,-0.139,-0.1283,-0.1282,-0.1282]},{"header":{"parameterUnit":"m.s-1","parameterCategory":2,"la1":30.2991,"la2":30.254,"lo1":-89.0895,"lo2":-89.0444,"dy":0.0017,"dx":0.0017,"nx":28,"ny":28,"refTime":"2023-10-05T09:00:00:Z","depth":"0","parameterNumber":3,"parameterNumberName":"V-component_of_CURRENTS"},"data":[0,0,0,0,0,0,0,0,0,0,0,0,0,0,0,0,0,0,0,0,0,0,0,0,0,0,0,0,0,0,0,0,0,0,0,0,0,0,0,0,0,0,0,0,0,0,0,0,0,0,0,0,0,0,0,0,0,0,-0.0106,-0.0105,0,0.0013,0.0015,0.0016,0.009,0.0091,0.0091,0.0091,0.0277,0.0282,0.0286,0,0,0,0,0,0,0,0,0,0,0,0,0,-0.0157,-0.0157,-0.0106,-0.0105,-0.0104,0.0013,0.0015,0.0017,0.009,0.0091,0.0091,0.0091,0.0275,0.0281,0.0287,0,0,0,0,0,0,0,0,0,0,0,0,0,-0.0094,-0.0157,-0.0107,-0.0055,-0.0049,0.0012,0.0015,0.0017,0.009,0.0091,0.0091,0.0091,0.0274,0.0281,0.0288,0.0327,0,0,0.031,0.0313,0,0,0,0,0,0,0,0,-0.0098,-0.0092,-0.0064,-0.0058,-0.0052,0.0035,0.0065,0.0123,0.009,0.004,0.0091,0.0091,0.0201,0.0214,0.0238,0.0335,0.0343,0.031,0.0315,0.0318,0.032,0,0,0,0,0,0,0,-0.0103,-0.0096,-0.0057,-0.0062,-0.0055,0.0001,0.001,0.0077,0.012,0.0044,0.0049,0.0059,0.0205,0.0231,0.0243,0.0346,0.031,0.0316,0.0321,0.0324,0.0514,0.0515,0,0,0,0,0,0,-0.0129,-0.0101,-0.006,-0.0053,-0.0078,0.0001,0.0011,0.0009,0.0118,0.0134,0.0058,0.0062,0.0219,0.0235,0.025,0.0294,0.0318,0.0324,0.0329,0.0513,0.0514,0.0515,0,0,0,0,0,0,-0.0131,-0.0127,-0.0065,-0.0075,-0.0064,0.0001,-0.0001,0.0011,0.0034,0.0128,0.0145,0.0067,0.0219,0.024,0.0313,0.0302,0.0328,0.0334,0.0512,0.0513,0.0514,0.0388,0,0,0,0,0,0,-0.0133,-0.0128,-0.0138,-0.0078,-0.0065,-0.004,-0.0001,0.0013,0.0038,0.0044,0.0142,0.0159,0.0221,0.0301,0.032,0.0313,0.034,0.0511,0.0513,0.0514,0.0391,0.0385,0.0379,0,0,0,0,0,-0.0135,-0.0155,-0.0139,-0.0134,-0.0081,-0.0041,-0.0029,0.0021,0.0038,0.0043,0.0117,0.0156,0.0323,0.0308,0.0329,0.0324,0.0511,0.0512,0.0514,0.0394,0.0386,0.0379,0,0,0,0,0,0,-0.018,-0.0147,-0.0129,-0.0138,-0.0097,-0.003,-0.0024,0.0012,0.0073,0.0077,0.0168,0.0191,0.0251,0.0312,0.0293,0.0387,0.0423,0.0429,0.0325,0.0318,0.0312,0.0288,0.0346,0,0,0,0,0,-0.0197,-0.0208,-0.0155,-0.0164,-0.0149,-0.0088,-0.0066,-0.0034,0.0027,0.0053,0.0124,0.0204,0.0276,0.0314,0.0388,0.0438,0.0481,0.0451,0.0445,0.0439,0.0437,0.048,0.0476,0.052,0.052,0.052,0,0,-0.0215,-0.0202,-0.0206,-0.0175,-0.0142,-0.0128,-0.0074,-0.0053,-0.0035,0.0065,0.0111,0.0186,0.0287,0.0343,0.0375,0.039,0.0451,0.0441,0.0435,0.0436,0.0481,0.0476,0.0472,0.0521,0.0521,0.0521,0,0,-0.0271,-0.0249,-0.0279,-0.025,-0.0215,-0.0167,-0.0167,-0.0102,-0.0067,-0.0012,0.0065,0.0132,0.024,0.0307,0.0357,0.0365,0.0418,0.0389,0.0334,0.0374,0.037,0.0367,0.0408,0.041,0.0383,0.0382,0.0382,0,-0.0297,-0.0323,-0.0278,-0.0293,-0.0274,-0.0192,-0.0202,-0.0152,-0.007,-0.004,-0.0014,0.0143,0.0223,0.0296,0.0301,0.0348,0.0378,0.0343,0.0361,0.0359,0.0358,0.0402,0.0405,0.0376,0.0377,0.0378,0.0378,0,-0.0373,-0.0382,-0.0394,-0.0385,-0.0355,-0.0349,-0.0275,-0.0237,-0.0182,-0.0126,-0.0048,0.0061,0.0153,0.0187,0.0249,0.0286,0.0313,0.0343,0.0364,0.0345,0.0394,0.0399,0.0368,0.037,0.0372,0.0373,0,0,-0.0449,-0.0451,-0.0452,-0.0454,-0.0401,-0.0379,-0.0349,-0.0287,-0.0261,-0.018,-0.0142,-0.0021,0.0035,0.0097,0.0179,0.0218,0.0237,0.0266,0.0271,0.028,0.032,0.0374,0.0386,0.0257,0.0257,0.0258,0.0354,0,-0.0517,-0.057,-0.0543,-0.0555,-0.056,-0.0477,-0.0448,-0.0381,-0.0307,-0.0245,-0.0139,-0.0064,0.0002,0.0045,0.0091,0.0218,0.0247,0.0209,0.0364,0.0369,0.0396,0.0393,0.0448,0.0541,0.0359,0.036,0.0361,0,-0.0598,-0.0614,-0.066,-0.0627,-0.0621,-0.061,-0.0536,-0.0501,-0.0395,-0.0341,-0.0262,-0.0166,-0.0068,-0.0021,0.014,0.0108,0.0197,0.0279,0.0285,0.0384,0.0433,0.0539,0.0559,0.0713,0.037,0.0369,0.0369,0,-0.067,-0.0684,-0.0721,-0.0714,-0.0672,-0.0666,-0.0628,-0.0538,-0.0502,-0.0402,-0.0363,-0.0238,-0.0159,-0.0045,0.0138,0.0134,0.0306,0.0326,0.0451,0.0456,0.0562,0.0576,0.073,0.0408,0.0407,0.0407,0.0407,0,-0.0749,-0.0768,-0.0759,-0.0776,-0.0791,-0.0734,-0.0726,-0.0668,-0.059,-0.0548,-0.0422,-0.0356,-0.0165,-0.003,0.011,0.0308,0.0285,0.0444,0.0485,0.0522,0.053,0.0718,0.0769,0.0411,0.041,0.0409,0.0409,0,-0.0825,-0.0827,-0.0859,-0.084,-0.0834,-0.0843,-0.0799,-0.0782,-0.0701,-0.0644,-0.0615,-0.0438,-0.0248,-0.0053,0.0165,0.0287,0.0566,0.0528,0.0561,0.0604,0.0859,0.09,0.1087,0.1186,0.068,0.0681,0.0683,0,-0.0869,-0.0903,-0.0918,-0.0937,-0.0935,-0.0934,-0.0928,-0.0853,-0.0826,-0.0684,-0.0659,-0.0464,-0.0296,0.0047,0.0304,0.056,0.0662,0.0735,0.074,0.0886,0.0962,0.0983,0.1054,0.0832,0.0835,0.0837,0.0839,0,-0.0938,-0.0952,-0.098,-0.1025,-0.104,-0.1045,-0.1027,-0.1018,-0.0914,-0.0836,-0.0687,-0.0541,-0.0182,0.0166,0.0498,0.0645,0.0861,0.0788,0.0939,0.1094,0.113,0.124,0.0752,0.0859,0.0857,0.0855,0.0854,0.0853,-0.0978,-0.1024,-0.1066,-0.1103,-0.1124,-0.1133,-0.1125,-0.1077,-0.1013,-0.0849,-0.0709,-0.0437,0.0056,0.0558,0.073,0.1108,0.1044,0.121,0.1247,0.1255,0.1356,0.0908,0.1058,0.1057,0.1056,0.1056,0.1055,0,-0.1014,-0.107,-0.1126,-0.1169,-0.1198,-0.1187,-0.1166,-0.112,-0.1027,-0.0834,-0.0639,-0.0064,0.0413,0.0839,0.1368,0.1561,0.1604,0.164,0.1693,0.1744,0.1362,0.1376,0.1603,0.1603,0.1603,0.1602,0.1602,0.1602,-0.1035,-0.1109,-0.1147,-0.121,-0.1235,-0.1234,-0.1212,-0.1119,-0.0971,-0.0616,-0.0277,0.0005,0.0615,0.1463,0.1936,0.1966,0.2134,0.2103,0.2187,0.1932,0.1894,0.1859,0.1887,0.2217,0.2218,0.2577,0.2581,0.2584]}],[{"header":{"parameterUnit":"m.s-1","parameterCategory":2,"la1":30.2991,"la2":30.254,"lo1":-89.0895,"lo2":-89.0444,"dy":0.0017,"dx":0.0017,"nx":28,"ny":28,"refTime":"2023-10-05T09:00:00:Z","depth":"2","parameterNumber":2,"parameterNumberName":"U-component_of_CURRENTS"},"data":[0,0,0,0,0,0,0,0,0,0,0,0,0,0,0,0,0,0,0,0,0,0,0,0,0,0,0,0,0,0,0,0,0,0,0,0,0,0,0,0,0,0,0,0,0,0,0,0,0,0,0,0,0,0,0,0,0,0,-0.233,-0.233,0,-0.2391,-0.2392,-0.2392,-0.2362,-0.236,-0.2358,-0.2357,-0.2407,-0.241,-0.2413,0,0,0,0,0,0,0,0,0,0,0,0,0,-0.227,-0.2271,-0.233,-0.233,-0.2331,-0.2391,-0.2392,-0.2393,-0.2362,-0.236,-0.2358,-0.2356,-0.2406,-0.241,-0.2413,0,0,0,0,0,0,0,0,0,0,0,0,0,-0.2311,-0.2271,-0.233,-0.2322,-0.2321,-0.239,-0.2392,-0.2393,-0.2363,-0.236,-0.2357,-0.2355,-0.2405,-0.2409,-0.2414,-0.2494,0,0,-0.2428,-0.2429,0,0,0,0,0,0,0,0,-0.2309,-0.2314,-0.2322,-0.2322,-0.2322,-0.2364,-0.2389,-0.2426,-0.2363,-0.2349,-0.2357,-0.2354,-0.2393,-0.2398,-0.2418,-0.2497,-0.2499,-0.2428,-0.2431,-0.2433,-0.2434,0,0,0,0,0,0,0,-0.2306,-0.2311,-0.2356,-0.2323,-0.2323,-0.2343,-0.2346,-0.2396,-0.2386,-0.235,-0.2347,-0.2352,-0.2392,-0.2414,-0.2419,-0.25,-0.2428,-0.2432,-0.2435,-0.2436,-0.2579,-0.258,0,0,0,0,0,0,-0.2294,-0.2309,-0.2354,-0.2357,-0.2307,-0.2346,-0.2349,-0.2355,-0.2386,-0.2387,-0.2354,-0.2351,-0.2408,-0.2414,-0.2421,-0.2496,-0.2433,-0.2437,-0.2439,-0.2578,-0.2579,-0.258,0,0,0,0,0,0,-0.2292,-0.2297,-0.2351,-0.2333,-0.234,-0.2349,-0.2357,-0.2358,-0.2374,-0.2389,-0.239,-0.2369,-0.2406,-0.2414,-0.247,-0.2498,-0.2439,-0.2443,-0.2576,-0.2578,-0.258,-0.266,0,0,0,0,0,0,-0.2291,-0.2297,-0.2298,-0.2332,-0.2341,-0.2403,-0.2359,-0.2361,-0.2381,-0.2376,-0.2403,-0.2404,-0.2404,-0.2464,-0.2475,-0.2503,-0.2446,-0.2575,-0.2577,-0.2579,-0.2656,-0.2664,-0.2671,0,0,0,0,0,-0.2288,-0.2304,-0.2298,-0.2304,-0.2343,-0.2405,-0.2414,-0.2411,-0.2384,-0.2412,-0.2421,-0.2403,-0.2482,-0.247,-0.2482,-0.2512,-0.2574,-0.2576,-0.2579,-0.2652,-0.2662,-0.2671,0,0,0,0,0,0,-0.2276,-0.2303,-0.2297,-0.2318,-0.2362,-0.2399,-0.2418,-0.2422,-0.2454,-0.2445,-0.2443,-0.2449,-0.2503,-0.25,-0.2485,-0.2553,-0.2516,-0.2521,-0.2568,-0.2577,-0.2585,-0.2553,-0.245,0,0,0,0,0,-0.2276,-0.2289,-0.2331,-0.2347,-0.237,-0.2397,-0.2419,-0.2431,-0.2462,-0.2471,-0.2491,-0.2502,-0.2528,-0.2545,-0.2574,-0.2633,-0.2579,-0.2649,-0.2657,-0.2663,-0.2644,-0.2577,-0.2576,-0.2588,-0.2588,-0.2588,0,0,-0.2271,-0.2289,-0.2293,-0.2345,-0.2372,-0.2418,-0.2405,-0.2454,-0.2486,-0.2477,-0.2526,-0.2545,-0.2551,-0.2606,-0.2627,-0.2605,-0.2639,-0.2667,-0.2672,-0.2648,-0.258,-0.2578,-0.2577,-0.259,-0.259,-0.2589,0,0,-0.2282,-0.2293,-0.2315,-0.2357,-0.2411,-0.244,-0.2457,-0.2515,-0.2532,-0.2597,-0.2584,-0.2618,-0.267,-0.2676,-0.2682,-0.2752,-0.2686,-0.2757,-0.2772,-0.271,-0.2707,-0.2705,-0.2663,-0.2655,-0.2755,-0.2755,-0.2755,0,-0.227,-0.2301,-0.2335,-0.2378,-0.24,-0.2449,-0.2487,-0.2534,-0.2601,-0.2604,-0.2616,-0.2658,-0.2696,-0.2714,-0.2749,-0.277,-0.2716,-0.2743,-0.2718,-0.2713,-0.2709,-0.2666,-0.2657,-0.2759,-0.2759,-0.2758,-0.2758,0,-0.2306,-0.2332,-0.2355,-0.241,-0.2452,-0.25,-0.2563,-0.2607,-0.263,-0.2653,-0.2689,-0.2738,-0.2737,-0.2777,-0.2799,-0.2793,-0.2761,-0.274,-0.2691,-0.2712,-0.2667,-0.2656,-0.2765,-0.2764,-0.2763,-0.2762,0,0,-0.2247,-0.2356,-0.2355,-0.2374,-0.2468,-0.2497,-0.2565,-0.2614,-0.2616,-0.269,-0.2676,-0.2768,-0.2763,-0.2769,-0.2795,-0.2778,-0.2757,-0.2755,-0.275,-0.2708,-0.2614,-0.2561,-0.2543,-0.2714,-0.2712,-0.2711,-0.2605,0,-0.225,-0.2316,-0.2376,-0.2422,-0.2454,-0.2517,-0.2563,-0.2612,-0.265,-0.2665,-0.2698,-0.2714,-0.2766,-0.2771,-0.2763,-0.2758,-0.2724,-0.2787,-0.2603,-0.2598,-0.2542,-0.2527,-0.2363,-0.225,-0.2593,-0.2591,-0.259,0,-0.2244,-0.2284,-0.2336,-0.2398,-0.2416,-0.2455,-0.2486,-0.254,-0.2584,-0.2609,-0.2619,-0.2639,-0.2663,-0.2688,-0.2646,-0.2674,-0.2644,-0.2635,-0.2629,-0.2532,-0.2522,-0.2279,-0.2216,-0.257,-0.2572,-0.2573,-0.2575,0,-0.2144,-0.2237,-0.2265,-0.2292,-0.2389,-0.2402,-0.2445,-0.25,-0.2525,-0.2556,-0.2559,-0.2567,-0.2572,-0.2532,-0.256,-0.2578,-0.2486,-0.2495,-0.2408,-0.2405,-0.2203,-0.2185,-0.2413,-0.2414,-0.2414,-0.2414,-0.2414,0,-0.2097,-0.2107,-0.2217,-0.2223,-0.2235,-0.2324,-0.233,-0.238,-0.2431,-0.2441,-0.2507,-0.2503,-0.2528,-0.2502,-0.2503,-0.2424,-0.2424,-0.239,-0.2359,-0.2233,-0.2219,-0.2443,-0.2448,-0.241,-0.2411,-0.2412,-0.2412,0,-0.1973,-0.2056,-0.2079,-0.2167,-0.219,-0.2186,-0.2265,-0.2277,-0.2342,-0.2352,-0.236,-0.2426,-0.2401,-0.2413,-0.2363,-0.2342,-0.2284,-0.2248,-0.212,-0.2076,-0.2257,-0.2268,-0.2115,-0.2111,-0.2109,-0.2107,-0.2105,0,-0.1922,-0.1926,-0.2004,-0.2016,-0.2053,-0.208,-0.211,-0.2207,-0.2228,-0.2302,-0.2294,-0.2299,-0.2281,-0.2205,-0.2159,-0.2089,-0.2187,-0.1907,-0.1918,-0.2233,-0.2219,-0.2234,-0.2248,-0.1694,-0.1689,-0.1685,-0.1682,0,-0.1802,-0.1833,-0.1855,-0.1883,-0.1912,-0.1937,-0.1986,-0.1994,-0.2105,-0.2122,-0.2135,-0.2124,-0.2083,-0.1947,-0.1884,-0.1834,-0.1912,-0.182,-0.2123,-0.1815,-0.1833,-0.1822,-0.1849,-0.1645,-0.1649,-0.1652,-0.1654,-0.1655,-0.1703,-0.169,-0.1729,-0.1738,-0.1773,-0.1776,-0.1747,-0.1815,-0.182,-0.1825,-0.1914,-0.1848,-0.1858,-0.1664,-0.1587,-0.153,-0.1662,-0.16,-0.1614,-0.1632,-0.1621,-0.1635,-0.1409,-0.1411,-0.1413,-0.1415,-0.1416,0,-0.158,-0.1585,-0.1589,-0.1596,-0.1573,-0.1635,-0.1653,-0.1608,-0.157,-0.1608,-0.1589,-0.1441,-0.1351,-0.1367,-0.1214,-0.1195,-0.1193,-0.1157,-0.1155,-0.1191,-0.1224,-0.1195,-0.0868,-0.0866,-0.0865,-0.0863,0,0,-0.1518,-0.1476,-0.1479,-0.1393,-0.1396,-0.132,-0.1297,-0.1258,-0.1248,-0.118,-0.115,-0.1246,-0.1305,-0.1081,-0.1037,-0.0923,-0.1046,-0.0877,-0.1314,-0.1345,-0.1375,-0.1472,-0.1467,0,0,0,0,0]},{"header":{"parameterUnit":"m.s-1","parameterCategory":2,"la1":30.2991,"la2":30.254,"lo1":-89.0895,"lo2":-89.0444,"dy":0.0017,"dx":0.0017,"nx":28,"ny":28,"refTime":"2023-10-05T09:00:00:Z","depth":"2","parameterNumber":3,"parameterNumberName":"V-component_of_CURRENTS"},"data":[0,0,0,0,0,0,0,0,0,0,0,0,0,0,0,0,0,0,0,0,0,0,0,0,0,0,0,0,0,0,0,0,0,0,0,0,0,0,0,0,0,0,0,0,0,0,0,0,0,0,0,0,0,0,0,0,0,0,-0.0114,-0.0113,0,-0.0049,-0.0048,-0.0047,0.0009,0.0009,0.001,0.001,0.017,0.0174,0.0177,0,0,0,0,0,0,0,0,0,0,0,0,0,-0.0119,-0.0119,-0.0114,-0.0113,-0.0113,-0.0049,-0.0048,-0.0047,0.0009,0.0009,0.001,0.001,0.0169,0.0173,0.0178,0,0,0,0,0,0,0,0,0,0,0,0,0,-0.009,-0.012,-0.0114,-0.0079,-0.0075,-0.005,-0.0048,-0.0047,0.0009,0.0009,0.001,0.0011,0.0167,0.0173,0.0178,0.0201,0,0,0.0196,0.0199,0,0,0,0,0,0,0,0,-0.0092,-0.0089,-0.0085,-0.0081,-0.0077,-0.003,0.0008,0.004,0.0009,-0.0021,0.001,0.0011,0.011,0.012,0.0133,0.0209,0.0216,0.0197,0.02,0.0203,0.0204,0,0,0,0,0,0,0,-0.0094,-0.0091,-0.0086,-0.0084,-0.0079,-0.0043,-0.0038,0.0015,0.0044,-0.0018,-0.0014,-0.0011,0.0113,0.0127,0.0138,0.0218,0.0196,0.0202,0.0205,0.0207,0.0308,0.0307,0,0,0,0,0,0,-0.0111,-0.0094,-0.0088,-0.0084,-0.0086,-0.0043,-0.0038,-0.0044,0.0041,0.0054,-0.0012,-0.0009,0.0117,0.0131,0.0144,0.0182,0.0202,0.0208,0.0211,0.0309,0.0308,0.0307,0,0,0,0,0,0,-0.0112,-0.0112,-0.009,-0.0089,-0.0084,-0.0045,-0.0051,-0.0043,-0.0029,0.0045,0.0059,-0.0007,0.0118,0.0135,0.0188,0.0189,0.0211,0.0216,0.031,0.0308,0.0307,0.0256,0,0,0,0,0,0,-0.0112,-0.0112,-0.012,-0.009,-0.0085,-0.0085,-0.0051,-0.0042,-0.0029,-0.0025,0.0054,0.0069,0.012,0.0178,0.0193,0.0197,0.022,0.0311,0.0309,0.0308,0.0259,0.0253,0.0249,0,0,0,0,0,-0.0113,-0.0133,-0.0121,-0.012,-0.0097,-0.0086,-0.008,-0.0047,-0.003,-0.0031,0.0025,0.0067,0.0179,0.0183,0.02,0.0206,0.0311,0.031,0.0308,0.0261,0.0255,0.0249,0,0,0,0,0,0,-0.014,-0.0129,-0.0115,-0.013,-0.0112,-0.0078,-0.0077,-0.0055,-0.0013,-0.0006,0.0068,0.0087,0.0131,0.0168,0.0171,0.0226,0.0248,0.0249,0.0206,0.0201,0.0195,0.018,0.0225,0,0,0,0,0,-0.0151,-0.0163,-0.014,-0.0153,-0.0148,-0.0113,-0.0103,-0.0085,-0.0046,-0.0028,0.0028,0.0084,0.0136,0.0167,0.0216,0.0252,0.0289,0.0261,0.0256,0.0252,0.0248,0.0304,0.0305,0.0301,0.0301,0.0301,0,0,-0.0163,-0.0161,-0.0165,-0.0159,-0.0142,-0.0144,-0.0105,-0.0102,-0.0094,-0.0016,0.0017,0.0072,0.0141,0.0181,0.0203,0.0215,0.0269,0.0249,0.0245,0.0244,0.0303,0.0303,0.0304,0.03,0.03,0.03,0,0,-0.0209,-0.0194,-0.0223,-0.0212,-0.02,-0.0173,-0.0176,-0.0144,-0.0119,-0.0087,-0.0026,0.0029,0.0099,0.0156,0.0192,0.0186,0.024,0.0192,0.0161,0.0216,0.0217,0.0219,0.0257,0.0262,0.019,0.019,0.019,0,-0.0226,-0.0255,-0.0228,-0.025,-0.0241,-0.0191,-0.0209,-0.0178,-0.0131,-0.0105,-0.0088,0.0027,0.0089,0.0155,0.0151,0.0179,0.0207,0.0183,0.0211,0.0213,0.0216,0.0255,0.0261,0.0187,0.0187,0.0188,0.0188,0,-0.0293,-0.0308,-0.0322,-0.0328,-0.0312,-0.0321,-0.0275,-0.0252,-0.0212,-0.0172,-0.0107,-0.0023,0.0046,0.0071,0.0114,0.0161,0.0174,0.0199,0.0229,0.0213,0.0255,0.0263,0.0183,0.0184,0.0185,0.0186,0,0,-0.0357,-0.0368,-0.0375,-0.0379,-0.0353,-0.0346,-0.0326,-0.0286,-0.0263,-0.0206,-0.0167,-0.0073,-0.0024,0.0019,0.0085,0.0133,0.018,0.0164,0.0168,0.0205,0.0285,0.0315,0.0326,0.0209,0.021,0.0211,0.0304,0,-0.0417,-0.0473,-0.0454,-0.0477,-0.049,-0.0429,-0.0408,-0.0359,-0.0302,-0.025,-0.0156,-0.0095,-0.0044,-0.0007,0.005,0.0155,0.0199,0.0151,0.0291,0.0295,0.0327,0.0336,0.0302,0.0384,0.0312,0.0313,0.0314,0,-0.0493,-0.0513,-0.056,-0.0538,-0.0537,-0.0536,-0.0477,-0.0453,-0.0363,-0.0317,-0.024,-0.0162,-0.0065,-0.0031,0.0129,0.0094,0.0176,0.0249,0.0255,0.0307,0.034,0.039,0.0402,0.0328,0.0327,0.0326,0.0325,0,-0.0555,-0.0581,-0.0615,-0.0613,-0.0587,-0.0581,-0.0555,-0.0479,-0.0449,-0.0358,-0.0323,-0.02,-0.0131,-0.0014,0.0141,0.0135,0.0308,0.0325,0.0425,0.0428,0.044,0.0441,0.0421,0.0421,0.0421,0.0421,0.0421,0,-0.0625,-0.0648,-0.065,-0.0668,-0.0685,-0.064,-0.0634,-0.0586,-0.0516,-0.0477,-0.0365,-0.0301,-0.0126,0.0001,0.0127,0.0305,0.0302,0.0423,0.046,0.0419,0.0418,0.0401,0.0398,0.0424,0.0424,0.0423,0.0422,0,-0.0689,-0.0697,-0.073,-0.0723,-0.0721,-0.0733,-0.0699,-0.0685,-0.0612,-0.0558,-0.0532,-0.0371,-0.0197,-0.0021,0.0186,0.0294,0.0456,0.0514,0.0447,0.0474,0.0538,0.053,0.0636,0.0638,0.0639,0.0641,0.0642,0,-0.0728,-0.0758,-0.0781,-0.0803,-0.0806,-0.0812,-0.0811,-0.0747,-0.0722,-0.0591,-0.0565,-0.0391,-0.0244,0.0068,0.0284,0.0511,0.0507,0.0597,0.0588,0.0538,0.0563,0.0553,0.0543,0.0578,0.0579,0.0579,0.058,0,-0.0784,-0.0798,-0.0825,-0.0877,-0.0897,-0.0908,-0.0897,-0.0889,-0.0796,-0.0726,-0.0591,-0.0463,-0.0156,0.0107,0.0392,0.0513,0.056,0.0614,0.0598,0.0527,0.0492,0.0513,0.0504,0.0583,0.0583,0.0583,0.0583,0.0582,-0.0817,-0.0856,-0.0897,-0.0939,-0.0968,-0.0983,-0.0979,-0.0939,-0.0883,-0.0739,-0.0617,-0.0393,-0.0146,0.0277,0.0468,0.0633,0.0638,0.0675,0.067,0.0666,0.0641,0.061,0.0718,0.0719,0.0719,0.0719,0.072,0,-0.0849,-0.0894,-0.0948,-0.0996,-0.1028,-0.1029,-0.1014,-0.0975,-0.0893,-0.0735,-0.0569,-0.0279,0.0019,0.0261,0.054,0.071,0.0679,0.0716,0.0649,0.0644,0.0641,0.0611,0.0683,0.0683,0.0684,0.0684,0,0,-0.0868,-0.093,-0.0961,-0.1026,-0.1057,-0.1067,-0.1051,-0.0971,-0.085,-0.0672,-0.0497,-0.0255,0.0042,0.0233,0.0438,0.0572,0.0557,0.057,0.0582,0.0474,0.0469,0.0602,0.0551,0,0,0,0,0]}],[{"header":{"parameterUnit":"m.s-1","parameterCategory":2,"la1":30.2991,"la2":30.254,"lo1":-89.0895,"lo2":-89.0444,"dy":0.0017,"dx":0.0017,"nx":28,"ny":28,"refTime":"2023-10-05T09:00:00:Z","depth":"4","parameterNumber":2,"parameterNumberName":"U-component_of_CURRENTS"},"data":[0,0,0,0,0,0,0,0,0,0,0,0,0,0,0,0,0,0,0,0,0,0,0,0,0,0,0,0,0,0,0,0,0,0,0,0,0,0,0,0,0,0,0,0,0,0,0,0,0,0,0,0,0,0,0,0,0,0,-0.1486,-0.1486,0,-0.1505,-0.1505,-0.1505,-0.1522,-0.1523,-0.1523,-0.1524,-0.1531,-0.1531,-0.1531,0,0,0,0,0,0,0,0,0,0,0,0,0,-0.1456,-0.1456,-0.1486,-0.1486,-0.1487,-0.1505,-0.1505,-0.1505,-0.1522,-0.1523,-0.1523,-0.1524,-0.1531,-0.1531,-0.1531,0,0,0,0,0,0,0,0,0,0,0,0,0,-0.1469,-0.1457,-0.1486,-0.1499,-0.1501,-0.1504,-0.1505,-0.1505,-0.1522,-0.1523,-0.1523,-0.1524,-0.1532,-0.1531,-0.1531,-0.1517,0,0,-0.153,-0.153,0,0,0,0,0,0,0,0,-0.1469,-0.147,-0.1497,-0.1498,-0.15,-0.1513,-0.1497,-0.1509,-0.1522,-0.1512,-0.1524,-0.1524,-0.1525,-0.1526,-0.1525,-0.1518,-0.1518,-0.153,-0.153,-0.153,-0.153,0,0,0,0,0,0,0,-0.1468,-0.147,-0.1491,-0.1497,-0.1499,-0.1501,-0.1504,-0.1499,-0.1513,-0.1513,-0.1515,-0.152,-0.1526,-0.1525,-0.1525,-0.1518,-0.153,-0.153,-0.153,-0.153,-0.1579,-0.158,0,0,0,0,0,0,-0.1469,-0.1469,-0.1491,-0.1492,-0.1488,-0.1501,-0.1504,-0.1507,-0.1514,-0.1516,-0.1519,-0.152,-0.1525,-0.1526,-0.1526,-0.1596,-0.153,-0.153,-0.153,-0.1577,-0.1579,-0.1581,0,0,0,0,0,0,-0.1468,-0.1471,-0.149,-0.1482,-0.1485,-0.1501,-0.1504,-0.1507,-0.1532,-0.1519,-0.1521,-0.1545,-0.1526,-0.1526,-0.1558,-0.1593,-0.153,-0.1529,-0.1575,-0.1578,-0.158,-0.168,0,0,0,0,0,0,-0.1467,-0.147,-0.1482,-0.1482,-0.1486,-0.1513,-0.1504,-0.1507,-0.1534,-0.1536,-0.1541,-0.1541,-0.1526,-0.1558,-0.1558,-0.1591,-0.1529,-0.1574,-0.1576,-0.1579,-0.1675,-0.1685,-0.1694,0,0,0,0,0,-0.1466,-0.1476,-0.1482,-0.1485,-0.1498,-0.1514,-0.1517,-0.1528,-0.1535,-0.1552,-0.1565,-0.1542,-0.1575,-0.156,-0.1558,-0.1593,-0.1572,-0.1576,-0.1579,-0.1671,-0.1683,-0.1694,0,0,0,0,0,0,-0.1473,-0.1479,-0.1485,-0.1499,-0.1516,-0.1519,-0.1536,-0.1544,-0.1566,-0.1576,-0.1563,-0.1565,-0.161,-0.1583,-0.1567,-0.1614,-0.1568,-0.1571,-0.1638,-0.165,-0.166,-0.1649,-0.1529,0,0,0,0,0,-0.1479,-0.1486,-0.1498,-0.1512,-0.1524,-0.1535,-0.1547,-0.1558,-0.1573,-0.1584,-0.1591,-0.1597,-0.1616,-0.1621,-0.1629,-0.1649,-0.1622,-0.1668,-0.1678,-0.1686,-0.1677,-0.1691,-0.1701,-0.1591,-0.1591,-0.1591,0,0,-0.1485,-0.149,-0.1495,-0.1514,-0.1527,-0.1553,-0.1544,-0.1573,-0.1603,-0.158,-0.1629,-0.164,-0.1633,-0.1669,-0.1683,-0.1653,-0.1703,-0.1691,-0.1698,-0.1683,-0.1695,-0.1706,-0.1715,-0.1593,-0.1593,-0.1593,0,0,-0.1497,-0.1509,-0.1522,-0.1543,-0.1572,-0.158,-0.1596,-0.1619,-0.1643,-0.1686,-0.1687,-0.1715,-0.1734,-0.1738,-0.174,-0.1802,-0.1764,-0.181,-0.1841,-0.1857,-0.1866,-0.1873,-0.185,-0.1854,-0.1804,-0.1804,-0.1804,0,-0.1509,-0.1525,-0.1531,-0.1558,-0.1583,-0.1598,-0.1631,-0.1654,-0.1689,-0.1712,-0.1716,-0.1767,-0.1764,-0.1804,-0.1828,-0.1825,-0.1816,-0.1802,-0.187,-0.1877,-0.1883,-0.1857,-0.1861,-0.1809,-0.1809,-0.1808,-0.1808,0,-0.1524,-0.1557,-0.1571,-0.1607,-0.1635,-0.1667,-0.1702,-0.1739,-0.1769,-0.1787,-0.185,-0.1857,-0.1878,-0.1892,-0.1879,-0.1925,-0.1899,-0.1893,-0.1841,-0.19,-0.1868,-0.1871,-0.1817,-0.1815,-0.1813,-0.1812,0,0,-0.1492,-0.1568,-0.1575,-0.1608,-0.1668,-0.1685,-0.1752,-0.18,-0.1836,-0.1882,-0.1927,-0.1969,-0.1971,-0.1973,-0.197,-0.1977,-0.2014,-0.1955,-0.1953,-0.1932,-0.2028,-0.1889,-0.1877,-0.2032,-0.2033,-0.2034,-0.1988,0,-0.1505,-0.156,-0.1602,-0.1665,-0.1695,-0.1751,-0.1806,-0.1856,-0.1897,-0.1941,-0.1969,-0.2007,-0.2004,-0.2019,-0.2036,-0.2021,-0.2025,-0.2025,-0.1972,-0.1969,-0.184,-0.1877,-0.2038,-0.1989,-0.1989,-0.199,-0.199,0,-0.1492,-0.1533,-0.1598,-0.1692,-0.1713,-0.1759,-0.1838,-0.189,-0.1959,-0.1996,-0.2044,-0.2059,-0.2088,-0.2074,-0.2083,-0.2088,-0.2065,-0.2047,-0.2045,-0.1876,-0.1834,-0.1918,-0.1993,-0.1993,-0.1992,-0.1992,-0.1992,0,-0.1422,-0.1527,-0.1577,-0.1608,-0.1713,-0.1765,-0.1823,-0.1903,-0.1941,-0.2022,-0.2045,-0.2099,-0.2108,-0.2117,-0.2084,-0.2094,-0.2071,-0.2075,-0.1926,-0.1914,-0.201,-0.2002,-0.2078,-0.2078,-0.2078,-0.2078,-0.2078,0,-0.1385,-0.1429,-0.1554,-0.1571,-0.1637,-0.1731,-0.1796,-0.1865,-0.1949,-0.1975,-0.2059,-0.2067,-0.2122,-0.2114,-0.2095,-0.2001,-0.2081,-0.1922,-0.1896,-0.2051,-0.2049,-0.201,-0.2003,-0.2076,-0.2077,-0.2077,-0.2077,0,-0.1284,-0.1371,-0.1429,-0.1555,-0.1599,-0.1638,-0.1763,-0.1803,-0.19,-0.1936,-0.196,-0.2038,-0.2026,-0.2046,-0.2036,-0.1978,-0.1925,-0.1872,-0.2012,-0.1996,-0.1755,-0.1754,-0.1699,-0.1694,-0.169,-0.1686,-0.1683,0,-0.1238,-0.1257,-0.1382,-0.142,-0.1482,-0.1565,-0.1622,-0.1753,-0.1787,-0.1889,-0.1886,-0.1918,-0.1949,-0.1812,-0.1865,-0.1812,-0.1795,-0.1758,-0.1779,-0.1737,-0.1718,-0.1724,-0.1729,-0.1676,-0.1675,-0.1674,-0.1672,0,-0.1141,-0.1191,-0.1235,-0.1307,-0.1378,-0.1438,-0.1529,-0.154,-0.1672,-0.1773,-0.175,-0.1739,-0.1716,-0.1707,-0.1672,-0.1643,-0.1783,-0.1711,-0.1721,-0.1741,-0.1708,-0.1695,-0.1705,-0.1657,-0.1659,-0.1661,-0.1662,0,-0.107,-0.1071,-0.1135,-0.1185,-0.1266,-0.1293,-0.1358,-0.1405,-0.1452,-0.1582,-0.1563,-0.1611,-0.1684,-0.1616,-0.1588,-0.1544,-0.1528,-0.1488,-0.1509,-0.1527,-0.1494,-0.1429,-0.126,0,0,0,0,0,-0.1,-0.0987,-0.1019,-0.1066,-0.1138,-0.1179,-0.1291,-0.1361,-0.1488,-0.1425,-0.149,-0.1464,-0.1428,-0.1459,-0.1375,-0.1512,-0.1536,-0.141,-0.1502,-0.1572,-0.159,-0.1569,0,0,0,0,0,0,-0.0954,-0.0971,-0.0971,-0.0954,-0.0964,-0.1026,-0.1089,-0.1178,-0.1155,-0.1284,-0.1266,-0.1362,-0.1344,-0.1434,-0.1335,-0.1344,-0.1371,-0.1451,-0.1447,-0.1562,-0.1578,-0.1592,-0.1577,0,0,0,0,0]},{"header":{"parameterUnit":"m.s-1","parameterCategory":2,"la1":30.2991,"la2":30.254,"lo1":-89.0895,"lo2":-89.0444,"dy":0.0017,"dx":0.0017,"nx":28,"ny":28,"refTime":"2023-10-05T09:00:00:Z","depth":"4","parameterNumber":3,"parameterNumberName":"V-component_of_CURRENTS"},"data":[0,0,0,0,0,0,0,0,0,0,0,0,0,0,0,0,0,0,0,0,0,0,0,0,0,0,0,0,0,0,0,0,0,0,0,0,0,0,0,0,0,0,0,0,0,0,0,0,0,0,0,0,0,0,0,0,0,0,-0.0091,-0.0091,0,-0.0071,-0.0071,-0.007,-0.0035,-0.0034,-0.0034,-0.0033,0.0005,0.0005,0.0006,0,0,0,0,0,0,0,0,0,0,0,0,0,-0.0076,-0.0076,-0.0091,-0.0091,-0.009,-0.0071,-0.0071,-0.007,-0.0035,-0.0034,-0.0034,-0.0033,0.0005,0.0005,0.0006,0,0,0,0,0,0,0,0,0,0,0,0,0,-0.0071,-0.0077,-0.0091,-0.0071,-0.0069,-0.0071,-0.0071,-0.007,-0.0035,-0.0034,-0.0033,-0.0033,0.0005,0.0005,0.0006,-0.0008,0,0,0.0008,0.0008,0,0,0,0,0,0,0,0,-0.0071,-0.0072,-0.0074,-0.0072,-0.007,-0.0055,-0.0051,-0.0049,-0.0035,-0.0047,-0.0033,-0.0032,-0.0015,-0.0012,-0.001,-0.0006,-0.0004,0.0008,0.0008,0.0009,0.0009,0,0,0,0,0,0,0,-0.0072,-0.0072,-0.0082,-0.0074,-0.0072,-0.0056,-0.0054,-0.0051,-0.0035,-0.0046,-0.0044,-0.0043,-0.0013,-0.0011,-0.0009,-0.0004,0.0008,0.0009,0.0009,0.0009,0.0003,0.0002,0,0,0,0,0,0,-0.0078,-0.0073,-0.0083,-0.0082,-0.007,-0.0057,-0.0055,-0.006,-0.0036,-0.0031,-0.0044,-0.0042,-0.0012,-0.0009,-0.0007,-0.0002,0.0009,0.0009,0.001,0.0003,0.0002,0.0002,0,0,0,0,0,0,-0.0078,-0.008,-0.0083,-0.0077,-0.0076,-0.0058,-0.0064,-0.006,-0.0056,-0.0034,-0.0029,-0.0043,-0.0011,-0.0008,0.0004,-0.0001,0.001,0.001,0.0004,0.0003,0.0002,-0.0005,0,0,0,0,0,0,-0.0078,-0.008,-0.0086,-0.0078,-0.0077,-0.009,-0.0065,-0.0061,-0.0057,-0.0054,-0.0032,-0.0028,-0.001,0.0003,0.0005,0.0,0.0011,0.0005,0.0003,0.0002,-0.0004,-0.0006,-0.0008,0,0,0,0,0,-0.0078,-0.0094,-0.0086,-0.0087,-0.0086,-0.0091,-0.009,-0.0072,-0.0058,-0.0063,-0.0038,-0.0028,-0.0003,0.0003,0.0005,0.0001,0.0005,0.0004,0.0002,-0.0003,-0.0005,-0.0007,0,0,0,0,0,0,-0.0091,-0.0092,-0.0083,-0.0098,-0.0096,-0.0085,-0.0089,-0.0077,-0.0063,-0.0059,-0.0031,-0.0025,-0.0016,-0.0013,-0.0006,-0.0007,-0.0,-0.0001,-0.0005,-0.0007,-0.0009,-0.0011,0.0011,0,0,0,0,0,-0.0098,-0.0109,-0.0104,-0.0116,-0.0116,-0.0103,-0.0102,-0.0095,-0.0081,-0.0074,-0.0056,-0.004,-0.0023,-0.0017,-0.0007,-0.0009,0.0023,-0.0013,-0.0015,-0.0017,-0.0018,0.0049,0.0054,-0.0003,-0.0003,-0.0003,0,0,-0.0105,-0.0108,-0.0113,-0.0119,-0.0115,-0.0125,-0.01,-0.0107,-0.0109,-0.0074,-0.0068,-0.0045,-0.0024,-0.0018,-0.0015,-0.0013,0.0012,-0.0018,-0.0019,-0.002,0.0048,0.0054,0.0059,-0.0003,-0.0003,-0.0003,0,0,-0.0137,-0.013,-0.0153,-0.0154,-0.0156,-0.0145,-0.0149,-0.0142,-0.013,-0.0126,-0.0093,-0.0068,-0.0061,-0.0033,-0.002,-0.0031,0.0003,-0.0039,-0.0049,0.0016,0.0022,0.0027,0.0064,0.0073,-0.0042,-0.0042,-0.0042,0,-0.0148,-0.0174,-0.016,-0.0182,-0.0182,-0.0157,-0.0177,-0.0165,-0.0152,-0.0137,-0.013,-0.008,-0.0065,-0.003,-0.0036,-0.0032,0.0001,-0.0038,0.0016,0.0023,0.0029,0.0065,0.0075,-0.0042,-0.0042,-0.0042,-0.0042,0,-0.0198,-0.0214,-0.0227,-0.0241,-0.0238,-0.0252,-0.0232,-0.0224,-0.0203,-0.0182,-0.0146,-0.0109,-0.0076,-0.0071,-0.0058,-0.0014,-0.0005,0.0013,0.0028,0.0035,0.0071,0.0082,-0.0043,-0.0043,-0.0043,-0.0043,0,0,-0.0237,-0.0259,-0.0266,-0.0274,-0.0269,-0.0273,-0.0267,-0.0249,-0.0233,-0.0205,-0.0175,-0.0138,-0.0103,-0.0087,-0.0055,-0.0006,0.0059,0.0013,0.0017,0.006,0.0189,0.0162,0.0172,0.0096,0.0098,0.01,0.0195,0,-0.0282,-0.0333,-0.0326,-0.0355,-0.0371,-0.0336,-0.0328,-0.0303,-0.0268,-0.0232,-0.017,-0.0138,-0.0112,-0.0093,-0.0035,0.0036,0.0088,0.003,0.0167,0.017,0.0156,0.0184,0.0106,0.0203,0.0205,0.0207,0.0209,0,-0.0337,-0.036,-0.0405,-0.0401,-0.0404,-0.0413,-0.0378,-0.037,-0.0305,-0.0274,-0.0213,-0.0163,-0.009,-0.007,0.0073,0.0037,0.0107,0.0165,0.017,0.0156,0.0165,0.0197,0.0229,0.0227,0.0225,0.0224,0.0223,0,-0.0375,-0.041,-0.0444,-0.0448,-0.0444,-0.0447,-0.0437,-0.0387,-0.037,-0.03,-0.0272,-0.0168,-0.0121,-0.0007,0.0102,0.0096,0.026,0.0271,0.0316,0.0314,0.0313,0.0307,0.038,0.038,0.0379,0.0379,0.0379,0,-0.0419,-0.0445,-0.0469,-0.0486,-0.0511,-0.049,-0.0493,-0.0463,-0.0414,-0.0384,-0.0299,-0.0246,-0.01,0.0008,0.0109,0.0241,0.0273,0.032,0.0345,0.0304,0.0295,0.0321,0.0313,0.0383,0.0382,0.0381,0.0381,0,-0.0451,-0.0472,-0.051,-0.0526,-0.0535,-0.0552,-0.0548,-0.0539,-0.0488,-0.0445,-0.0425,-0.0297,-0.0155,-0.0013,0.017,0.024,0.0372,0.041,0.0339,0.0358,0.0378,0.0368,0.0474,0.0474,0.0474,0.0474,0.0474,0,-0.0471,-0.0499,-0.0546,-0.0575,-0.0589,-0.0612,-0.0622,-0.0585,-0.0566,-0.047,-0.0444,-0.031,-0.0212,0.003,0.0172,0.0368,0.039,0.0446,0.0426,0.0378,0.0393,0.0382,0.0373,0.0474,0.0474,0.0474,0.0474,0,-0.0497,-0.0521,-0.0549,-0.0615,-0.0648,-0.0673,-0.068,-0.067,-0.0608,-0.0568,-0.0441,-0.0308,-0.0151,0.003,0.0177,0.0317,0.0405,0.0447,0.0448,0.043,0.038,0.0391,0.0382,0.0474,0.0474,0.0474,0.0474,0,-0.051,-0.054,-0.0588,-0.0636,-0.0686,-0.071,-0.0713,-0.0671,-0.064,-0.0525,-0.0485,-0.0303,-0.0194,0.0005,0.0145,0.0273,0.0303,0.0334,0.0341,0.0343,0.027,0.0184,0.0249,0,0,0,0,0,-0.0516,-0.055,-0.0603,-0.0654,-0.0703,-0.0727,-0.0734,-0.0721,-0.0665,-0.0579,-0.0526,-0.0373,-0.0145,-0.0041,0.0085,0.0127,0.0307,0.0275,0.0341,0.0475,0.0474,0.0408,0,0,0,0,0,0,-0.0521,-0.0574,-0.06,-0.0655,-0.069,-0.0733,-0.0738,-0.0704,-0.0644,-0.0572,-0.0447,-0.036,-0.014,-0.0215,0.0084,0.0123,0.0177,0.0389,0.0391,0.0475,0.0475,0.0474,0.0406,0,0,0,0,0]}]]